London, United Kingdom

4:12 AM BST on June 25, 2017 (GMT +0100)
Heathrow

Weather History for EGLL - November, 2013

Change the Weather History Date:

Wednesday, November 6, 2013

  Actual Average Record
Temperature  
Mean Temperature 54 °F -  
Max Temperature 60 °F 49 °F 64 °F (2003)
Min Temperature 48 °F 38 °F 32 °F (2012)
Degree Days  
Heating Degree Days 11    
Growing Degree Days 4 (Base 50)    
Moisture  
Dew Point 51 °F    
Average Humidity 87    
Maximum Humidity 100    
Minimum Humidity 69    
Precipitation  
Precipitation 0.12 in - - ()
Sea Level Pressure  
Sea Level Pressure 29.51 in    
Wind  
Wind Speed 11 mph ()    
Max Wind Speed 24 mph    
Max Gust Speed 32 mph    
Visibility 6.5 miles    
Events Rain    
Averages and records for this station are not official NWS values.
T = Trace of Precipitation, MM = Missing Value Source: Averaged Metar Reports

Daily Weather History Graph

Daily Weather History Graph

Search for Another Location

Airport or City:

Trip Planner

Search our weather history database for the weather conditions in past years. The results will help you decide how hot, cold, wet, or windy it might be!

Date:

Astronomy

Nov. 06, 2013 Rise Set
Actual Time 7:04 AM GMT 4:25 PM GMT
Civil Twilight 6:28 AM GMT 5:01 PM GMT
Nautical Twilight 5:48 AM GMT 5:41 PM GMT
Astronomical Twilight 5:09 AM GMT 6:20 PM GMT
Moon 10:15 AM GMT (11/6) 7:04 PM GMT (11/6)
Length of Visible Light 10h 33m
Length of Day
9h 21m
Waxing Crescent, 12% of the Moon is Illuminated
Nov 6
Waxing Crescent
Nov 10
First Quarter
Nov 17
Full
Nov 25
Last Quarter
Dec 3
New

Hourly Weather History & Observations

Time (GMT) Temp. Dew Point Humidity Pressure Visibility Wind Dir Wind Speed Gust Speed Precip Events Conditions
12:00 AM 49 °F 42 °F 69% 29.52 in 16 mi WSW 12.7 mph - -   Scattered Clouds
12:20 AM 50.0 °F 42.8 °F 76% 29.50 in - WSW 11.5 mph - N/A   Clear
12:50 AM 50.0 °F 42.8 °F 76% 29.50 in - WSW 11.5 mph - N/A   Clear
1:20 AM 50.0 °F 42.8 °F 76% 29.50 in 6.2 mi WSW 11.5 mph - N/A   Unknown
1:50 AM 50.0 °F 42.8 °F 76% 29.50 in 6.2 mi WSW 10.4 mph - N/A   Unknown
2:20 AM 50.0 °F 44.6 °F 82% 29.53 in 6.2 mi WSW 9.2 mph - N/A   Unknown
2:50 AM 50.0 °F 44.6 °F 82% 29.53 in - SW 9.2 mph - N/A   Clear
3:00 AM 49 °F 44 °F 77% 29.52 in 16 mi SW 10.4 mph - -   Mostly Cloudy
3:20 AM 50.0 °F 44.6 °F 82% 29.53 in 6.2 mi SW 8.1 mph - N/A   Mostly Cloudy
3:50 AM 50.0 °F 44.6 °F 82% 29.53 in 6.2 mi SW 6.9 mph - N/A   Mostly Cloudy
4:20 AM 50.0 °F 44.6 °F 82% 29.53 in 6.2 mi SW 10.4 mph - N/A   Mostly Cloudy
4:50 AM 50.0 °F 46.4 °F 87% 29.53 in 6.2 mi SW 11.5 mph - N/A Rain Light Rain
5:20 AM 48.2 °F 46.4 °F 93% 29.56 in 6.2 mi SW 9.2 mph - N/A   Mostly Cloudy
5:50 AM 48.2 °F 46.4 °F 93% 29.53 in 6.2 mi SW 6.9 mph - N/A   Mostly Cloudy
6:00 AM 49 °F 47 °F 90% 29.55 in 10 mi SW 8.1 mph - - Rain Light Rain Showers
6:20 AM 50.0 °F 46.4 °F 87% 29.53 in 6.2 mi SSW 5.8 mph - N/A Rain Light Rain
6:50 AM 50.0 °F 46.4 °F 87% 29.53 in 6.2 mi SSW 4.6 mph - N/A Rain Light Rain
7:20 AM 50.0 °F 48.2 °F 94% 29.53 in 6.2 mi SW 6.9 mph - N/A Rain Light Rain
7:50 AM 50.0 °F 48.2 °F 94% 29.53 in 6.2 mi SW 6.9 mph - N/A   Scattered Clouds
8:20 AM 50.0 °F 48.2 °F 94% 29.53 in 6.2 mi SW 6.9 mph - N/A   Partly Cloudy
8:50 AM 50.0 °F 48.2 °F 94% 29.53 in 6.2 mi SW 5.8 mph - N/A   Scattered Clouds
9:00 AM 51 °F 49 °F 88%  in 15 mi SSW 6.9 mph - -   Partly Cloudy
9:20 AM 51.8 °F 48.2 °F 88% 29.53 in 6.2 mi WSW 4.6 mph - N/A   Scattered Clouds
9:50 AM 51.8 °F 50.0 °F 94% 29.53 in 6.2 mi SSW 4.6 mph - N/A   Mostly Cloudy
10:20 AM 51.8 °F 50.0 °F 94% 29.53 in 2.5 mi SSE 4.6 mph - N/A   Light Drizzle
10:50 AM 51.8 °F 51.8 °F 100% 29.53 in 1.9 mi SSE 4.6 mph - N/A   Light Drizzle
11:20 AM 53.6 °F 51.8 °F 94% 29.53 in 1.6 mi Variable 3.5 mph - N/A Rain Rain
11:50 AM 53.6 °F 51.8 °F 94% 29.53 in 1.2 mi South 4.6 mph - N/A Rain Light Drizzle
12:00 PM 53 °F 52 °F 97% 29.53 in 1 mi SSE 4.6 mph - - Rain Light Rain Showers
12:20 PM 53.6 °F 53.6 °F 100% 29.50 in 1.2 mi Variable 3.5 mph - N/A Rain Rain
12:50 PM 53.6 °F 53.6 °F 100% 29.50 in 1.9 mi Variable 3.5 mph - N/A   Light Drizzle
1:20 PM 55.4 °F 53.6 °F 94% 29.50 in 1.2 mi Variable 3.5 mph - N/A   Light Drizzle
1:50 PM 57.2 °F 55.4 °F 94% 29.50 in 6.2 mi SW 8.1 mph - N/A   Mostly Cloudy
2:20 PM 60.8 °F 55.4 °F 82% 29.50 in 6.2 mi WSW 15.0 mph - N/A   Mostly Cloudy
2:50 PM 60.8 °F 55.4 °F 82% 29.50 in 6.2 mi WSW 19.6 mph - N/A   Mostly Cloudy
3:00 PM 60 °F 55 °F 80% 29.50 in 22 mi SW 19.6 mph - -   Scattered Clouds
3:20 PM 60.8 °F 55.4 °F 82% 29.50 in 6.2 mi WSW 18.4 mph - N/A   Mostly Cloudy
3:50 PM 59.0 °F 55.4 °F 88% 29.50 in 6.2 mi WSW 19.6 mph - N/A   Mostly Cloudy
4:20 PM 59.0 °F 53.6 °F 82% 29.50 in 6.2 mi SW 17.3 mph - N/A   Scattered Clouds
4:50 PM 59.0 °F 53.6 °F 82% 29.50 in 6.2 mi SW 17.3 mph - N/A   Scattered Clouds
5:20 PM 59.0 °F 53.6 °F 82% 29.50 in 6.2 mi SW 20.7 mph - N/A   Scattered Clouds
5:50 PM 59.0 °F 55.4 °F 88% 29.50 in 6.2 mi SW 21.9 mph - N/A   Scattered Clouds
6:00 PM 59 °F 54 °F 80% 29.50 in 16 mi SW 20.7 mph - -   Mostly Cloudy
6:20 PM 59.0 °F 55.4 °F 88% 29.50 in 6.2 mi SW 19.6 mph - N/A   Mostly Cloudy
6:50 PM 59.0 °F 53.6 °F 82% 29.47 in 6.2 mi SW 20.7 mph - N/A   Mostly Cloudy
7:20 PM 59.0 °F 53.6 °F 82% 29.47 in 6.2 mi SW 19.6 mph - N/A   Mostly Cloudy
7:50 PM 59.0 °F 55.4 °F 88% 29.47 in 6.2 mi SW 24.2 mph - N/A   Mostly Cloudy
8:20 PM 59.0 °F 55.4 °F 88% 29.47 in 6.2 mi SW 21.9 mph - N/A   Mostly Cloudy
8:50 PM 59.0 °F 55.4 °F 88% 29.47 in 6.2 mi SW 23.0 mph - N/A   Mostly Cloudy
9:00 PM 59 °F 54 °F 80% 29.49 in 15 mi SW 23.0 mph - - Rain Rain
9:20 PM 59.0 °F 55.4 °F 88% 29.47 in 6.2 mi SW 23.0 mph - N/A   Mostly Cloudy
9:50 PM 59.0 °F 55.4 °F 88% 29.47 in 6.2 mi SW 20.7 mph - N/A   Mostly Cloudy
10:20 PM 59.0 °F 55.4 °F 88% 29.50 in 6.2 mi WSW 21.9 mph - N/A   Mostly Cloudy
10:50 PM 59.0 °F 55.4 °F 88% 29.50 in 6.2 mi SW 20.7 mph 32.2 mph N/A   Mostly Cloudy
11:20 PM 59.0 °F 55.4 °F 88% 29.50 in 6.2 mi WSW 19.6 mph - N/A   Scattered Clouds
11:50 PM 59.0 °F 55.4 °F 88% 29.53 in 5.6 mi WSW 16.1 mph - N/A Rain Light Rain